TimeCST,TemperatureF,Dew PointF,Humidity,Sea Level PressureIn,VisibilityMPH,Wind Direction,Wind SpeedMPH,Gust SpeedMPH,PrecipitationIn,Events,Conditions,WindDirDegrees,DateUTC
12:58 AM,52.0,40.1,64,30.20,10.0,ENE,9.2,-,N/A,,Clear,60,2013-11-04 06:58:00
1:58 AM,51.8,40.8,66,30.20,10.0,ENE,8.1,-,N/A,,Clear,60,2013-11-04 07:58:00
2:58 AM,52.7,43.0,70,30.20,10.0,ENE,6.9,-,N/A,,Clear,60,2013-11-04 08:58:00
3:58 AM,52.5,44.1,73,30.20,10.0,ENE,8.1,-,N/A,,Clear,70,2013-11-04 09:58:00
4:58 AM,57.9,40.8,53,30.21,10.0,East,11.5,-,N/A,,Clear,100,2013-11-04 10:58:00
5:58 AM,54.5,45.5,72,30.22,10.0,NE,6.9,-,N/A,,Clear,40,2013-11-04 11:58:00
6:58 AM,52.2,42.1,69,30.25,10.0,NE,6.9,-,N/A,,Clear,40,2013-11-04 12:58:00
7:58 AM,58.3,41.9,54,30.27,10.0,East,11.5,-,N/A,,Clear,80,2013-11-04 13:58:00
8:58 AM,62.8,45.5,53,30.27,10.0,East,10.4,-,N/A,,Clear,100,2013-11-04 14:58:00
9:47 AM,66.2,46.4,49,30.27,10.0,East,10.4,-,N/A,,Light Drizzle,100,2013-11-04 15:47:00
9:56 AM,66.2,46.4,49,30.27,10.0,East,10.4,-,N/A,,Clear,90,2013-11-04 15:56:00
9:58 AM,66.2,46.4,49,30.28,10.0,East,10.4,-,0.00,,Clear,90,2013-11-04 15:58:00
10:58 AM,67.3,48.6,51,30.28,10.0,ENE,8.1,-,N/A,,Clear,60,2013-11-04 16:58:00
11:58 AM,68.4,48.0,48,30.27,10.0,ESE,5.8,-,N/A,,Partly Cloudy,110,2013-11-04 17:58:00
12:03 PM,69.8,48.2,46,30.25,10.0,Variable,4.6,-,N/A,,Light Drizzle,0,2013-11-04 18:03:00
12:13 PM,69.8,48.2,46,30.25,10.0,ENE,5.8,-,N/A,,Clear,70,2013-11-04 18:13:00
12:58 PM,72.7,48.9,43,30.23,10.0,East,9.2,-,0.00,,Clear,90,2013-11-04 18:58:00
1:48 PM,73.4,48.2,41,30.21,10.0,East,9.2,-,N/A,Rain,Light Rain,100,2013-11-04 19:48:00
1:57 PM,75.2,50.0,41,30.21,10.0,East,9.2,-,N/A,,Clear,100,2013-11-04 19:57:00
1:58 PM,75.2,50.0,41,30.22,10.0,ESE,8.1,-,0.00,,Clear,110,2013-11-04 19:58:00
2:26 PM,73.4,50.0,44,30.20,10.0,East,8.1,-,N/A,Rain,Light Rain,100,2013-11-04 20:26:00
2:36 PM,73.4,50.0,44,30.20,10.0,ESE,8.1,-,N/A,,Clear,110,2013-11-04 20:36:00
2:58 PM,74.1,50.2,43,30.21,10.0,East,10.4,-,0.00,,Clear,100,2013-11-04 20:58:00
3:58 PM,72.0,51.1,48,30.21,10.0,East,6.9,-,N/A,,Overcast,100,2013-11-04 21:58:00
4:58 PM,69.8,53.4,56,30.22,10.0,East,5.8,-,N/A,,Scattered Clouds,80,2013-11-04 22:58:00
5:58 PM,67.6,50.9,55,30.23,10.0,ENE,8.1,-,N/A,,Mostly Cloudy,70,2013-11-04 23:58:00
6:58 PM,65.8,50.5,58,30.23,10.0,ENE,8.1,-,N/A,,Clear,60,2013-11-05 00:58:00
7:58 PM,65.8,50.7,58,30.25,10.0,ENE,6.9,-,N/A,,Partly Cloudy,60,2013-11-05 01:58:00
8:58 PM,64.6,50.4,60,30.25,10.0,East,10.4,-,N/A,,Partly Cloudy,80,2013-11-05 02:58:00
9:58 PM,64.2,50.5,61,30.25,10.0,East,10.4,-,N/A,,Partly Cloudy,80,2013-11-05 03:58:00
10:58 PM,63.0,50.4,63,30.25,10.0,East,15.0,-,N/A,,Partly Cloudy,80,2013-11-05 04:58:00
11:58 PM,62.4,50.4,65,30.23,10.0,East,15.0,23.0,N/A,,Clear,90,2013-11-05 05:58:00